EW8307 Weather Reports


time (UTC)temp
C
wind
direction
speed
KPH
gust
KPH
rain 1hr
cm
rain 24hr
cm
rain mn
cm
humidity
%
barometer
mb
20260504223127 20 275 1.6 16.1 0.00 0.00 0.00 37 1003.5
20260504221528 20 150 4.8 22.5 0.00 0.00 0.00 34 1003.5
20260504220041 21 194 4.8 12.9 0.00 0.00 0.00 31 1003.5
20260504214525 21 190 0.0 8.0 0.00 0.00 0.00 33 1003.5
20260504213125 21 212 4.8 14.5 0.00 0.00 0.00 32 1003.5
20260504211535 21 313 3.2 24.1 0.00 0.00 0.00 31 1003.6
20260504210025 21 203 3.2 16.1 0.00 0.00 0.00 31 1003.5
20260504204536 21 248 8.0 17.7 0.00 0.00 0.00 31 1003.4
20260504203124 21 306 3.2 11.3 0.00 0.00 0.00 31 1003.4
20260504201624 21 314 3.2 19.3 0.00 0.00 0.00 31 1003.5
20260504200023 21 309 6.4 22.5 0.00 0.00 0.00 32 1003.5
20260504194522 21 217 4.8 25.7 0.00 0.00 0.00 30 1003.6
20260504193122 21 274 1.6 14.5 0.00 0.00 0.00 32 1003.7
20260504191525 21 308 4.8 14.5 0.00 0.00 0.00 31 1003.8
20260504190026 21 134 4.8 16.1 0.00 0.00 0.00 29 1004.0
20260504184516 21 231 3.2 19.3 0.00 0.00 0.00 30 1004.0
20260504183115 21 219 4.8 19.3 0.00 0.00 0.00 30 1004.1
20260504181517 20 310 1.6 22.5 0.00 0.00 0.00 30 1004.2
20260504180010 20 215 8.0 22.5 0.00 0.00 0.00 29 1004.4
20260504174512 20 309 6.4 17.7 0.00 0.00 0.00 31 1004.5
20260504173109 20 264 6.4 17.7 0.00 0.00 0.00 32 1004.7
20260504171508 19 259 4.8 17.7 0.00 0.00 0.00 33 1004.9
20260504081552 6 294 0.0 1.6 0.00 0.00 0.00 57 1007.1
20260504044542 6 295 0.0 0.0 0.00 0.00 0.00 57 1007.1
20260504043051 6 295 0.0 0.0 0.00 0.00 0.00 57 1007.2
20260504041541 6 295 0.0 0.0 0.00 0.00 0.00 58 1007.1
20260504040040 6 295 0.0 0.0 0.00 0.00 0.00 57 1007.0
20260504034547 5 295 0.0 0.0 0.00 0.00 0.00 57 1006.9
20260504033041 5 295 0.0 0.0 0.00 0.00 0.00 58 1006.8
20260504031538 5 295 0.0 0.0 0.00 0.00 0.00 58 1006.7
20260504030042 5 295 0.0 0.0 0.00 0.00 0.00 59 1006.6
20260504024535 5 295 0.0 0.0 0.00 0.00 0.00 59 1006.4
20260504023035 5 295 0.0 0.0 0.00 0.00 0.00 59 1006.4
20260504021537 5 295 0.0 0.0 0.00 0.00 0.00 58 1006.4
20260504020040 5 295 0.0 0.0 0.00 0.00 0.00 58 1006.3
20260504014538 6 295 0.0 0.0 0.00 0.00 0.00 57 1006.3
20260504013036 6 295 0.0 0.0 0.00 0.00 0.00 57 1006.1
20260504011533 6 295 0.0 0.0 0.00 0.00 0.00 56 1006.0
20260504010031 7 295 0.0 0.0 0.00 0.00 0.00 53 1005.8
20260504004534 7 295 0.0 0.0 0.00 0.00 0.00 51 1005.6
20260504003031 8 295 0.0 0.0 0.00 0.00 0.00 48 1005.5
20260504001536 8 295 0.0 0.0 0.00 0.00 0.00 44 1005.4
20260504000031 9 295 0.0 1.6 0.00 0.00 0.00 43 1005.3
20260503234533 10 295 1.6 8.0 0.00 0.00 0.00 41 1005.2
20260503233031 10 286 1.6 8.0 0.00 0.00 0.00 40 1005.0
20260503231531 10 280 0.0 11.3 0.00 0.00 0.00 40 1004.9
20260503230031 10 314 1.6 8.0 0.00 0.00 0.00 39 1004.7
20260503224530 10 306 3.2 12.9 0.00 0.00 0.00 38 1004.7